GSAT0210 (GALILEO 13) (41550 NORAD) Tracking and Keplerian Element Data

This shows tracking and keplerian element data for the satellite.

Feedback or suggestion? Click here.




ElementValue
Catalog41550
NameGSAT0210 (GALILEO 13)
Epoch Orbit5416
Epoch Day34.45738056
Epoch Year2025
RAAN235.4088
Inclination55.2667
Eccentricity7.97E-05
Argument of Perigee155.5332
Mean Anonmoly204.4957
Mean Motion1.70473623
Decay Rate7.5E-07
L11 41550U 16030B 25034.45738056 .00000075 00000+0 00000+0 0 9997
L22 41550 55.2667 235.4088 0000797 155.5332 204.4957 1.70473623 54165



Live tracking and technical data element details for GSAT0210 (GALILEO 13) (NORAD 41550). GSAT0210 (GALILEO 13) can be tracked NOW for your location showing map with azimuth and elevation plus other details from your city location.







IsCatalogInMostPopularTable: catalog: 41550, numindb: 615
Update: records affected: 1



GetName: 41550 GSAT0210 (GALILEO 13)

Hit Count: updated at: Thu, 15 May 2025 10:53:49 GMT